ホームズ彗星

17P/Holmes (2021)

English version
Home page
Updated on September 18, 2021

---------------------------------------------------------------------

・ プロフィール

・ 写真集

・ 軌道要素

Epoch 2021 July 5.0 TT = JDT 2459400.5
T 2021 Feb. 19.82321 TT                                 Rudenko
q   2.0807099            (2000.0)            P               Q
n   0.14220226     Peri.   24.46904     +0.97547415     +0.12751783
a   3.6352286      Node   326.62043     -0.21318554     +0.75022605
e   0.4276261      Incl.   19.03216     +0.05479153     +0.64876812
P   6.93
From 1726 observations 2011 Jan. 5-2021 June 24, mean residual 0".6.

・ 星図

・ 光度変化

        m1 = 11.5 + 5 logΔ + 12.0 log r  [    ,-240]  (              〜2020年 6月24日)
        m1 =  1.5 + 5 logΔ + 35   log r  [-240, 163]  (2020年 6月24日〜2021年 8月 1日)
        m1 = -7.0 + 5 logΔ + 50   log r  [ 163,    ]  (2021年 8月 1日〜              )

---------------------------------------------------------------------

軌道要素はM.P.E.C. 2021-N06に掲載されたものです。
星図はステラナビゲータ Ver.8 (アストロアーツ) で作成したものです。
光度グラフはComet for Windowsで作成したものです。

---------------------------------------------------------------------

Copyright(C) Seiichi Yoshida (comet@aerith.net). All rights reserved.